Time,TemperatureF,DewpointF,PressureIn,WindDirection,WindDirectionDegrees,WindSpeedMPH,WindSpeedGustMPH,Humidity,HourlyPrecipIn,Conditions,Clouds,dailyrainin,SoftwareType,DateUTC
2013-07-22 00:00:00,73.8,59.0,0.00,SE,143,0.0,0.0,60,0.00,,,0.00,Weather View 32 v70,2013-07-22 04:00:00,
2013-07-22 00:15:00,73.6,59.7,0.00,SE,143,0.0,0.0,62,0.00,,,0.00,Weather View 32 v70,2013-07-22 04:15:00,
2013-07-22 00:30:00,73.2,59.4,0.00,SE,143,0.0,0.0,62,0.00,,,0.00,Weather View 32 v70,2013-07-22 04:30:00,
2013-07-22 00:36:00,73.2,59.4,0.00,SE,143,0.0,0.0,62,0.00,,,0.00,Weather View 32 v70,2013-07-22 04:36:00,
2013-07-22 00:45:00,73.0,59.7,0.00,SE,143,0.0,0.0,63,0.00,,,0.00,Weather View 32 v70,2013-07-22 04:45:00,
2013-07-22 01:00:00,72.9,59.9,0.00,SE,143,0.0,0.0,64,0.00,,,0.00,Weather View 32 v70,2013-07-22 05:00:00,
2013-07-22 01:15:00,72.5,58.7,0.00,SE,143,0.0,0.0,62,0.00,,,0.00,Weather View 32 v70,2013-07-22 05:15:00,
2013-07-22 01:30:00,72.7,58.4,0.00,SE,143,0.0,0.0,61,0.00,,,0.00,Weather View 32 v70,2013-07-22 05:30:00,
2013-07-22 01:37:00,72.7,58.4,0.00,SE,143,0.0,0.0,61,0.00,,,0.00,Weather View 32 v70,2013-07-22 05:37:00,
2013-07-22 01:45:00,72.3,58.5,0.00,SE,143,0.0,0.0,62,0.00,,,0.00,Weather View 32 v70,2013-07-22 05:45:00,
2013-07-22 02:37:00,71.4,58.6,0.00,SE,143,0.0,0.0,64,0.00,,,0.00,Weather View 32 v70,2013-07-22 06:37:00,
2013-07-22 02:45:00,71.4,57.7,0.00,SE,143,0.0,0.0,62,0.00,,,0.00,Weather View 32 v70,2013-07-22 06:45:00,
2013-07-22 03:00:00,71.1,58.7,0.00,SE,143,0.0,0.0,65,0.00,,,0.00,Weather View 32 v70,2013-07-22 07:00:00,
2013-07-22 03:15:00,70.9,58.9,0.00,SE,143,0.0,0.0,66,0.00,,,0.00,Weather View 32 v70,2013-07-22 07:15:00,
2013-07-22 03:30:00,70.9,58.5,0.00,SE,143,0.0,0.0,65,0.00,,,0.00,Weather View 32 v70,2013-07-22 07:30:00,
2013-07-22 03:38:00,70.9,58.5,0.00,SE,143,0.0,0.0,65,0.00,,,0.00,Weather View 32 v70,2013-07-22 07:38:00,
2013-07-22 03:44:00,70.5,58.6,0.00,North,3,0.0,4.0,66,0.00,,,0.00,Weather View 32 v70,2013-07-22 07:44:00,
2013-07-22 04:00:00,70.5,57.7,0.00,North,3,0.0,4.0,64,0.00,,,0.00,Weather View 32 v70,2013-07-22 08:00:00,
2013-07-22 04:15:00,70.5,57.7,0.00,North,3,0.0,4.0,64,0.00,,,0.00,Weather View 32 v70,2013-07-22 08:15:00,
2013-07-22 04:30:00,70.5,57.3,0.00,North,3,0.0,4.0,63,0.00,,,0.00,Weather View 32 v70,2013-07-22 08:30:00,
2013-07-22 04:38:00,70.5,57.3,0.00,North,3,0.0,4.0,63,0.00,,,0.00,Weather View 32 v70,2013-07-22 08:38:00,
2013-07-22 04:45:00,70.0,58.1,0.00,North,3,0.0,0.0,66,0.00,,,0.00,Weather View 32 v70,2013-07-22 08:45:00,
2013-07-22 05:00:00,70.0,58.5,0.00,North,3,0.0,0.0,67,0.00,,,0.00,Weather View 32 v70,2013-07-22 09:00:00,
2013-07-22 05:15:00,70.0,58.9,0.00,North,3,0.0,0.0,68,0.00,,,0.00,Weather View 32 v70,2013-07-22 09:15:00,
2013-07-22 05:30:00,70.2,59.5,0.00,North,3,0.0,0.0,69,0.00,,,0.00,Weather View 32 v70,2013-07-22 09:30:00,
2013-07-22 05:39:00,70.2,59.5,0.00,North,3,0.0,0.0,69,0.00,,,0.00,Weather View 32 v70,2013-07-22 09:39:00,
2013-07-22 05:45:00,70.3,59.7,0.00,North,3,0.0,0.0,69,0.00,,,0.00,Weather View 32 v70,2013-07-22 09:45:00,
2013-07-22 06:00:00,70.3,60.1,0.00,North,3,0.0,0.0,70,0.00,,,0.00,Weather View 32 v70,2013-07-22 10:00:00,
2013-07-22 06:15:00,70.3,60.5,0.00,North,3,0.0,0.0,71,0.00,,,0.00,Weather View 32 v70,2013-07-22 10:15:00,
2013-07-22 06:30:00,70.7,60.8,0.00,North,3,0.0,0.0,71,0.00,,,0.00,Weather View 32 v70,2013-07-22 10:30:00,
2013-07-22 06:39:00,70.7,60.8,0.00,North,3,0.0,0.0,71,0.00,,,0.00,Weather View 32 v70,2013-07-22 10:39:00,
2013-07-22 06:45:00,70.9,61.0,0.00,North,3,0.0,0.0,71,0.00,,,0.00,Weather View 32 v70,2013-07-22 10:45:00,
2013-07-22 07:00:00,71.1,61.1,0.00,North,3,0.0,0.0,71,0.00,,,0.00,Weather View 32 v70,2013-07-22 11:00:00,
2013-07-22 07:15:00,71.2,61.7,0.00,West,268,0.0,0.0,72,0.00,,,0.00,Weather View 32 v70,2013-07-22 11:15:00,
2013-07-22 07:30:00,71.8,61.8,0.00,NW,316,0.0,0.0,71,0.00,,,0.00,Weather View 32 v70,2013-07-22 11:30:00,
2013-07-22 07:45:00,72.3,63.1,0.00,NW,317,0.0,3.0,73,0.00,,,0.00,Weather View 32 v70,2013-07-22 11:45:00,
2013-07-22 07:59:00,72.9,64.1,0.00,North,10,0.0,3.0,74,0.00,,,0.00,Weather View 32 v70,2013-07-22 11:59:00,
2013-07-22 08:15:00,73.0,63.4,0.00,NNE,12,0.0,4.0,72,0.00,,,0.00,Weather View 32 v70,2013-07-22 12:15:00,
2013-07-22 08:30:00,73.8,63.7,0.00,North,3,0.0,4.0,71,0.00,,,0.00,Weather View 32 v70,2013-07-22 12:30:00,
2013-07-22 08:45:00,74.8,64.4,0.00,NNE,12,3.0,4.0,70,0.00,,,0.00,Weather View 32 v70,2013-07-22 12:45:00,
2013-07-22 09:00:00,75.6,64.2,0.00,North,0,0.0,4.0,68,0.00,,,0.00,Weather View 32 v70,2013-07-22 13:00:00,
2013-07-22 09:15:00,76.1,65.2,0.00,NNW,331,3.0,4.0,69,0.00,,,0.00,Weather View 32 v70,2013-07-22 13:15:00,
2013-07-22 09:30:00,76.6,65.7,0.00,NNE,12,0.0,4.0,69,0.00,,,0.00,Weather View 32 v70,2013-07-22 13:30:00,
2013-07-22 09:45:00,77.7,63.1,0.00,ESE,102,0.0,5.0,61,0.00,,,0.00,Weather View 32 v70,2013-07-22 13:45:00,
2013-07-22 09:59:00,78.3,63.2,0.00,SSE,168,0.0,6.0,60,0.00,,,0.00,Weather View 32 v70,2013-07-22 13:59:00,
2013-07-22 10:15:00,79.9,61.7,0.00,NE,52,0.0,6.0,54,0.00,,,0.00,Weather View 32 v70,2013-07-22 14:15:00,
2013-07-22 10:29:00,79.5,63.4,0.00,SW,221,4.0,6.0,58,0.00,,,0.00,Weather View 32 v70,2013-07-22 14:29:00,
2013-07-22 10:30:00,79.5,63.4,0.00,SW,221,4.0,6.0,58,0.00,,,0.00,Weather View 32 v70,2013-07-22 14:30:00,
2013-07-22 10:45:00,79.2,62.6,0.00,North,8,2.0,6.0,57,0.00,,,0.00,Weather View 32 v70,2013-07-22 14:45:00,
2013-07-22 11:00:00,79.9,63.2,0.00,ENE,71,3.0,5.0,57,0.00,,,0.00,Weather View 32 v70,2013-07-22 15:00:00,
2013-07-22 11:15:00,80.2,61.5,0.00,ESE,117,0.0,5.0,53,0.00,,,0.00,Weather View 32 v70,2013-07-22 15:15:00,
2013-07-22 11:29:00,80.2,61.0,0.00,ESE,112,3.0,6.0,52,0.00,,,0.00,Weather View 32 v70,2013-07-22 15:29:00,
2013-07-22 11:30:00,80.2,61.0,0.00,ESE,112,3.0,6.0,52,0.00,,,0.00,Weather View 32 v70,2013-07-22 15:30:00,
2013-07-22 11:44:00,81.7,60.0,0.00,South,179,0.0,6.0,48,0.00,,,0.00,Weather View 32 v70,2013-07-22 15:44:00,
2013-07-22 11:59:00,83.3,60.9,0.00,ESE,106,3.0,6.0,47,0.00,,,0.00,Weather View 32 v70,2013-07-22 15:59:00,
2013-07-22 12:15:00,82.0,60.3,0.00,SSW,198,5.0,6.0,48,0.00,,,0.00,Weather View 32 v70,2013-07-22 16:15:00,
2013-07-22 12:30:00,81.9,61.9,0.00,North,353,3.0,5.0,51,0.00,,,0.00,Weather View 32 v70,2013-07-22 16:30:00,
2013-07-22 12:45:00,82.0,62.1,0.00,ENE,76,3.0,5.0,51,0.00,,,0.00,Weather View 32 v70,2013-07-22 16:45:00,
2013-07-22 13:00:00,83.3,60.9,0.00,SW,235,3.0,6.0,47,0.00,,,0.00,Weather View 32 v70,2013-07-22 17:00:00,
2013-07-22 13:15:00,83.7,61.8,0.00,SSW,213,0.0,6.0,48,0.00,,,0.00,Weather View 32 v70,2013-07-22 17:15:00,
2013-07-22 13:30:00,84.2,61.7,0.00,ENE,75,3.0,6.0,47,0.00,,,0.00,Weather View 32 v70,2013-07-22 17:30:00,
2013-07-22 13:45:00,85.1,61.3,0.00,NNE,29,0.0,6.0,45,0.00,,,0.00,Weather View 32 v70,2013-07-22 17:45:00,
2013-07-22 14:15:00,78.1,60.0,0.00,SW,236,7.0,8.0,54,0.00,,,0.00,Weather View 32 v70,2013-07-22 18:15:00,
2013-07-22 14:30:00,73.6,65.9,0.00,ENE,67,3.0,11.0,77,0.55,,,0.55,Weather View 32 v70,2013-07-22 18:30:00,
2013-07-22 14:44:00,73.2,68.4,0.00,ENE,64,0.0,11.0,85,0.71,,,0.71,Weather View 32 v70,2013-07-22 18:44:00,
2013-07-22 14:59:00,73.9,69.8,0.00,North,353,0.0,11.0,87,0.71,,,0.71,Weather View 32 v70,2013-07-22 18:59:00,
2013-07-22 15:14:00,74.1,69.0,0.00,SSE,149,0.0,11.0,84,0.71,,,0.71,Weather View 32 v70,2013-07-22 19:14:00,
2013-07-22 15:29:00,75.0,70.9,0.00,North,5,0.0,4.0,87,0.16,,,0.71,Weather View 32 v70,2013-07-22 19:29:00,
2013-07-22 16:15:00,75.0,70.5,0.00,NNE,18,0.0,3.0,86,0.00,,,0.71,Weather View 32 v70,2013-07-22 20:15:00,
2013-07-22 16:30:00,74.8,71.0,0.00,NW,317,0.0,3.0,88,0.00,,,0.71,Weather View 32 v70,2013-07-22 20:30:00,
2013-07-22 16:45:00,74.8,71.0,0.00,NW,317,0.0,3.0,88,0.00,,,0.71,Weather View 32 v70,2013-07-22 20:45:00,
2013-07-22 17:00:00,74.8,71.4,0.00,NW,317,0.0,3.0,89,0.00,,,0.71,Weather View 32 v70,2013-07-22 21:00:00,
2013-07-22 17:14:00,75.0,71.9,0.00,SSW,195,0.0,3.0,90,0.00,,,0.71,Weather View 32 v70,2013-07-22 21:14:00,
2013-07-22 17:30:00,75.0,72.5,0.00,North,357,0.0,0.0,92,0.00,,,0.71,Weather View 32 v70,2013-07-22 21:30:00,
2013-07-22 17:44:00,75.4,73.2,0.00,North,357,0.0,0.0,93,0.00,,,0.71,Weather View 32 v70,2013-07-22 21:44:00,
2013-07-22 17:59:00,75.6,73.7,0.00,North,357,0.0,0.0,94,0.00,,,0.71,Weather View 32 v70,2013-07-22 21:59:00,
2013-07-22 18:14:00,75.6,73.7,0.00,North,357,0.0,3.0,94,0.00,,,0.71,Weather View 32 v70,2013-07-22 22:14:00,
2013-07-22 18:30:00,75.7,73.9,0.00,SW,225,0.0,3.0,94,0.00,,,0.71,Weather View 32 v70,2013-07-22 22:30:00,
2013-07-22 18:44:00,75.4,73.5,0.00,South,183,0.0,4.0,94,0.00,,,0.71,Weather View 32 v70,2013-07-22 22:44:00,
2013-07-22 19:00:00,75.0,73.2,0.00,SSE,149,0.0,4.0,94,0.04,,,0.75,Weather View 32 v70,2013-07-22 23:00:00,
2013-07-22 19:14:00,75.0,73.2,0.00,SSE,149,0.0,4.0,94,0.04,,,0.75,Weather View 32 v70,2013-07-22 23:14:00,
2013-07-22 19:30:00,74.8,73.3,0.00,SSE,147,0.0,4.0,95,0.04,,,0.75,Weather View 32 v70,2013-07-22 23:30:00,
2013-07-22 19:44:00,74.5,72.9,0.00,SSE,147,0.0,4.0,95,0.04,,,0.75,Weather View 32 v70,2013-07-22 23:44:00,
2013-07-22 20:00:00,74.3,72.8,0.00,SSE,157,0.0,4.0,95,0.04,,,0.79,Weather View 32 v70,2013-07-23 00:00:00,
2013-07-22 20:14:00,74.1,72.6,0.00,SSE,157,0.0,4.0,95,0.04,,,0.79,Weather View 32 v70,2013-07-23 00:14:00,
2013-07-22 20:30:00,74.1,72.6,0.00,SSE,157,0.0,2.0,95,0.04,,,0.79,Weather View 32 v70,2013-07-23 00:30:00,
2013-07-22 20:44:00,74.3,72.8,0.00,SSE,157,0.0,2.0,95,0.04,,,0.79,Weather View 32 v70,2013-07-23 00:44:00,
2013-07-22 21:00:00,74.3,73.1,0.00,NW,304,0.0,4.0,96,0.00,,,0.79,Weather View 32 v70,2013-07-23 01:00:00,
2013-07-22 21:15:00,73.9,72.7,0.00,South,178,0.0,4.0,96,0.00,,,0.79,Weather View 32 v70,2013-07-23 01:15:00,
2013-07-22 21:30:00,73.9,72.7,0.00,South,178,0.0,4.0,96,0.00,,,0.79,Weather View 32 v70,2013-07-23 01:30:00,
2013-07-22 21:45:00,73.9,72.7,0.00,South,178,0.0,4.0,96,0.04,,,0.83,Weather View 32 v70,2013-07-23 01:45:00,
2013-07-22 22:00:00,73.9,73.0,0.00,South,178,0.0,2.0,97,0.08,,,0.87,Weather View 32 v70,2013-07-23 02:00:00,
2013-07-22 22:15:00,73.9,73.0,0.00,South,178,0.0,0.0,97,0.08,,,0.87,Weather View 32 v70,2013-07-23 02:15:00,
2013-07-22 22:30:00,73.9,73.0,0.00,ESE,121,0.0,0.0,97,0.12,,,0.91,Weather View 32 v70,2013-07-23 02:30:00,
2013-07-22 22:45:00,73.9,73.3,0.00,SSW,197,0.0,4.0,98,0.08,,,0.91,Weather View 32 v70,2013-07-23 02:45:00,
2013-07-22 23:00:00,73.9,73.3,0.00,SSW,197,0.0,4.0,98,0.04,,,0.91,Weather View 32 v70,2013-07-23 03:00:00,
2013-07-22 23:15:00,73.9,73.3,0.00,ESE,117,2.0,4.0,98,0.08,,,0.94,Weather View 32 v70,2013-07-23 03:15:00,
2013-07-22 23:30:00,73.9,73.3,0.00,ESE,117,0.0,4.0,98,0.04,,,0.94,Weather View 32 v70,2013-07-23 03:30:00,
2013-07-22 23:45:00,73.8,73.2,0.00,ESE,117,0.0,3.0,98,0.04,,,0.94,Weather View 32 v70,2013-07-23 03:45:00,